QPF
0.01 0.02 0.04 0.10 0.11 0.05 0.04 0.03 0.02 0.02 0.02 0.03 0.03 0.03 0.03 0.03 0.03 0.02 0.02 0.03 0.03 0.05 0.06 0.05 0.05 0.05 0.04 0.04 0.05 0.05 0.04 0.03 0.04 0.06 0.05 0.05 0.05 0.03 0.02 0.02 0.02 0.03 0.03
0.02 0.02 0.05 0.13 0.18 0.10 0.06 0.05 0.04 0.03 0.02 0.03 0.03 0.03 0.03 0.03 0.03 0.02 0.02 0.03 0.04 0.05 0.05 0.04 0.03 0.03 0.03 0.05 0.06 0.06 0.05 0.03 0.05 0.05 0.06 0.07 0.06 0.04 0.02 0.03 0.04 0.04 0.02
0.02 0.03 0.06 0.17 0.23 0.13 0.09 0.09 0.06 0.04 0.03 0.03 0.04 0.04 0.03 0.03 0.03 0.02 0.02 0.02 0.04 0.05 0.07 0.06 0.04 0.04 0.04 0.04 0.04 0.07 0.06 0.05 0.05 0.04 0.05 0.05 0.04 0.05 0.04 0.03 0.03 0.04 0.04
0.04 0.03 0.05 0.11 0.15 0.14 0.09 0.09 0.08 0.06 0.04 0.04 0.03 0.03 0.03 0.03 0.02 0.02 0.01 0.03 0.05 0.04 0.07 0.07 0.04 0.05 0.06 0.05 0.04 0.05 0.06 0.06 0.06 0.05 0.04 0.04 0.03 0.03 0.04 0.04 0.05 0.05 0.03
0.06 0.05 0.05 0.06 0.09 0.11 0.09 0.07 0.08 0.08 0.07 0.06 0.03 0.02 0.03 0.03 0.03 0.03 0.03 0.03 0.03 0.03 0.06 0.09 0.05 0.06 0.06 0.06 0.06 0.05 0.06 0.07 0.06 0.07 0.07 0.07 0.05 0.03 0.04 0.05 0.05 0.04 0.04
0.08 0.05 0.04 0.04 0.05 0.06 0.08 0.08 0.08 0.09 0.13 0.12 0.06 0.04 0.03 0.03 0.03 0.03 0.03 0.03 0.04 0.04 0.05 0.06 0.06 0.06 0.04 0.02 0.02 0.03 0.05 0.08 0.09 0.08 0.08 0.08 0.07 0.05 0.04 0.05 0.04 0.03 0.03
0.05 0.04 0.04 0.03 0.04 0.07 0.10 0.10 0.09 0.14 0.15 0.10 0.09 0.06 0.04 0.04 0.03 0.04 0.04 0.04 0.05 0.06 0.05 0.05 0.05 0.04 0.04 0.03 0.03 0.03 0.04 0.05 0.06 0.07 0.07 0.08 0.07 0.06 0.06 0.07 0.07 0.05 0.03
0.05 0.06 0.05 0.03 0.03 0.06 0.07 0.08 0.10 0.10 0.07 0.05 0.07 0.09 0.09 0.07 0.06 0.06 0.05 0.05 0.04 0.04 0.05 0.06 0.06 0.04 0.04 0.03 0.03 0.03 0.02 0.02 0.03 0.03 0.03 0.05 0.06 0.07 0.08 0.08 0.07 0.06 0.05
0.06 0.06 0.05 0.06 0.05 0.07 0.08 0.07 0.04 0.03 0.04 0.04 0.06 0.08 0.09 0.10 0.09 0.07 0.06 0.05 0.04 0.03 0.04 0.04 0.05 0.04 0.03 0.02 0.03 0.03 0.02 0.02 0.02 0.02 0.03 0.02 0.03 0.05 0.07 0.08 0.09 0.09 0.07
0.04 0.04 0.04 0.06 0.07 0.05 0.06 0.07 0.05 0.02 0.01 0.02 0.03 0.03 0.05 0.06 0.06 0.06 0.05 0.05 0.05 0.04 0.05 0.04 0.04 0.04 0.03 0.02 0.02 0.02 0.02 0.02 0.02 0.03 0.03 0.02 0.02 0.03 0.04 0.05 0.06 0.07 0.08
0.03 0.02 0.02 0.04 0.06 0.02 0.02 0.03 0.03 0.01 0.01 0.01 0.01 0.02 0.03 0.03 0.04 0.05 0.05 0.05 0.04 0.04 0.05 0.04 0.04 0.04 0.04 0.04 0.04 0.03 0.03 0.03 0.03 0.03 0.04 0.03 0.03 0.03 0.04 0.04 0.04 0.04 0.05
0.03 0.03 0.04 0.07 0.07 0.03 0.02 0.03 0.02 0.01 0.01 0.01 0.02 0.02 0.03 0.02 0.02 0.03 0.04 0.05 0.04 0.04 0.05 0.04 0.03 0.03 0.05 0.04 0.05 0.03 0.02 0.02 0.03 0.03 0.04 0.04 0.04 0.04 0.05 0.06 0.05 0.04 0.05
0.06 0.06 0.06 0.09 0.08 0.04 0.03 0.03 0.03 0.02 0.01 0.01 0.02 0.03 0.03 0.02 0.02 0.03 0.04 0.05 0.05 0.04 0.05 0.06 0.04 0.04 0.04 0.04 0.04 0.03 0.02 0.02 0.02 0.03 0.04 0.04 0.05 0.05 0.06 0.06 0.05 0.05 0.04
0.08 0.06 0.05 0.07 0.05 0.05 0.04 0.04 0.03 0.04 0.03 0.03 0.03 0.03 0.02 0.02 0.03 0.03 0.04 0.04 0.04 0.03 0.04 0.04 0.04 0.04 0.04 0.04 0.04 0.03 0.03 0.02 0.02 0.03 0.04 0.04 0.04 0.04 0.05 0.05 0.05 0.05 0.06
0.05 0.04 0.04 0.07 0.06 0.04 0.03 0.03 0.03 0.03 0.03 0.03 0.03 0.02 0.02 0.02 0.02 0.03 0.03 0.03 0.04 0.03 0.04 0.04 0.03 0.04 0.05 0.04 0.04 0.05 0.05 0.03 0.02 0.02 0.02 0.02 0.02 0.03 0.04 0.05 0.06 0.07 0.08
0.03 0.03 0.03 0.02 0.04 0.04 0.02 0.02 0.03 0.03 0.03 0.03 0.03 0.03 0.02 0.02 0.02 0.02 0.03 0.03 0.03 0.03 0.03 0.03 0.03 0.03 0.04 0.05 0.06 0.07 0.08 0.05 0.03 0.02 0.01 0.01 0.02 0.02 0.02 0.03 0.04 0.06 0.08
0.02 0.01 0.01 0.01 0.01 0.02 0.03 0.02 0.01 0.02 0.02 0.02 0.03 0.03 0.02 0.02 0.03 0.03 0.03 0.03 0.04 0.03 0.03 0.03 0.03 0.03 0.04 0.05 0.05 0.05 0.05 0.04 0.03 0.03 0.02 0.02 0.02 0.02 0.01 0.02 0.03 0.03 0.05
0.01 0.01 0.01 0.01 0.01 0.01 0.01 0.01 0.01 0.02 0.01 0.01 0.01 0.02 0.03 0.02 0.02 0.03 0.03 0.03 0.03 0.03 0.03 0.02 0.03 0.03 0.03 0.03 0.03 0.04 0.04 0.03 0.03 0.03 0.03 0.02 0.02 0.02 0.02 0.02 0.03 0.02 0.03
0.02 0.02 0.01 0.01 0.01 0.01 0.01 0.01 0.02 0.02 0.02 0.01 0.01 0.02 0.02 0.02 0.02 0.02 0.02 0.02 0.02 0.02 0.03 0.03 0.03 0.04 0.04 0.04 0.04 0.04 0.03 0.03 0.02 0.02 0.01 0.01 0.01 0.02 0.03 0.03 0.03 0.04 0.04
0.02 0.02 0.02 0.01 0.01 0.01 0.01 0.01 0.01 0.02 0.01 0.01 0.02 0.02 0.02 0.02 0.02 0.02 0.02 0.02 0.02 0.02 0.03 0.04 0.03 0.04 0.04 0.04 0.04 0.03 0.03 0.02 0.02 0.02 0.01 0.01 0.01 0.01 0.02 0.01 0.02 0.02 0.02
0.03 0.02 0.02 0.01 0.01 0.01 0.01 0.01 0.01 0.01 0.01 0.02 0.03 0.04 0.03 0.03 0.03 0.03 0.02 0.02 0.03 0.03 0.03 0.03 0.03 0.03 0.04 0.04 0.03 0.04 0.03 0.02 0.02 0.02 0.01 0.01 0.01 0.01 0.01 0.01 0.01 0.01 0.02
0.05 0.03 0.02 0.01 0.00 0.00 0.00 0.00 0.00 0.01 0.01 0.02 0.03 0.03 0.04 0.04 0.03 0.03 0.03 0.03 0.03 0.03 0.03 0.03 0.04 0.04 0.03 0.03 0.03 0.03 0.02 0.02 0.03 0.02 0.02 0.02 0.03 0.02 0.02 0.02 0.01 0.01 0.02
0.05 0.03 0.01 0.01 0.00 0.00 0.01 0.01 0.01 0.01 0.01 0.01 0.02 0.03 0.03 0.04 0.03 0.04 0.05 0.05 0.04 0.03 0.04 0.04 0.04 0.03 0.02 0.02 0.03 0.03 0.03 0.03 0.03 0.02 0.02 0.03 0.03 0.03 0.03 0.02 0.01 0.01 0.01
0.04 0.04 0.03 0.02 0.01 0.01 0.01 0.01 0.00 0.00 0.01 0.01 0.01 0.03 0.04 0.04 0.04 0.03 0.02 0.03 0.04 0.04 0.04 0.04 0.04 0.02 0.02 0.02 0.02 0.02 0.02 0.03 0.02 0.02 0.03 0.03 0.03 0.03 0.03 0.02 0.02 0.01 0.01
0.04 0.03 0.03 0.03 0.03 0.01 0.01 0.00 0.00 0.01 0.01 0.02 0.01 0.02 0.03 0.04 0.05 0.04 0.03 0.04 0.04 0.03 0.04 0.04 0.03 0.03 0.02 0.01 0.02 0.01 0.01 0.01 0.02 0.02 0.02 0.03 0.03 0.02 0.02 0.02 0.01 0.01 0.01
0.03 0.03 0.03 0.02 0.01 0.01 0.01 0.00 0.00 0.01 0.02 0.01 0.01 0.02 0.03 0.05 0.06 0.05 0.03 0.02 0.03 0.04 0.03 0.04 0.05 0.05 0.04 0.04 0.03 0.02 0.01 0.01 0.02 0.03 0.02 0.02 0.02 0.02 0.02 0.02 0.02 0.02 0.02
MSLP
1008.10 1008.71 1009.28 1009.77 1010.17 1010.52 1010.84 1011.17 1011.55 1011.99 1012.47 1012.96 1013.43 1013.81 1014.08 1014.23 1014.26 1014.22 1014.15 1014.10 1014.12 1014.21 1014.37 1014.59 1014.83 1015.04 1015.19 1015.27 1015.30 1015.27 1015.23 1015.20 1015.20 1015.22 1015.27 1015.31 1015.31 1015.24 1015.08 1014.84 1014.54 1014.20 1013.87
1007.91 1008.62 1009.25 1009.77 1010.17 1010.49 1010.77 1011.07 1011.45 1011.91 1012.45 1013.03 1013.58 1014.05 1014.39 1014.57 1014.61 1014.55 1014.45 1014.36 1014.34 1014.42 1014.59 1014.84 1015.11 1015.37 1015.57 1015.69 1015.74 1015.73 1015.71 1015.69 1015.71 1015.77 1015.85 1015.93 1015.97 1015.93 1015.79 1015.55 1015.21 1014.82 1014.42
1007.57 1008.38 1009.09 1009.66 1010.07 1010.38 1010.63 1010.91 1011.28 1011.76 1012.35 1012.99 1013.63 1014.17 1014.58 1014.81 1014.88 1014.82 1014.70 1014.59 1014.55 1014.61 1014.78 1015.04 1015.34 1015.62 1015.85 1016.00 1016.07 1016.09 1016.08 1016.10 1016.15 1016.25 1016.38 1016.52 1016.61 1016.63 1016.52 1016.29 1015.95 1015.52 1015.05
1007.07 1007.98 1008.79 1009.42 1009.88 1010.19 1010.43 1010.70 1011.06 1011.54 1012.15 1012.84 1013.53 1014.15 1014.62 1014.90 1015.01 1014.98 1014.87 1014.76 1014.71 1014.77 1014.94 1015.20 1015.51 1015.81 1016.05 1016.22 1016.32 1016.35 1016.37 1016.41 1016.50 1016.65 1016.84 1017.03 1017.18 1017.25 1017.19 1016.99 1016.65 1016.21 1015.70
1006.43 1007.45 1008.35 1009.07 1009.59 1009.94 1010.20 1010.46 1010.80 1011.28 1011.89 1012.59 1013.31 1013.97 1014.49 1014.83 1014.99 1015.01 1014.94 1014.86 1014.83 1014.90 1015.08 1015.34 1015.65 1015.96 1016.21 1016.39 1016.50 1016.55 1016.59 1016.66 1016.78 1016.96 1017.19 1017.44 1017.64 1017.75 1017.74 1017.57 1017.25 1016.81 1016.29
1005.68 1006.79 1007.80 1008.63 1009.23 1009.64 1009.93 1010.20 1010.54 1011.00 1011.59 1012.27 1012.99 1013.66 1014.22 1014.61 1014.83 1014.91 1014.90 1014.87 1014.89 1015.00 1015.20 1015.47 1015.79 1016.09 1016.35 1016.54 1016.65 1016.72 1016.77 1016.86 1017.00 1017.20 1017.46 1017.73 1017.96 1018.11 1018.12 1017.99 1017.70 1017.29 1016.78
1004.86 1006.04 1007.16 1008.09 1008.79 1009.29 1009.64 1009.94 1010.28 1010.72 1011.27 1011.92 1012.61 1013.27 1013.84 1014.27 1014.55 1014.70 1014.77 1014.82 1014.90 1015.06 1015.30 1015.60 1015.92 1016.23 1016.49 1016.68 1016.80 1016.88 1016.94 1017.03 1017.18 1017.39 1017.64 1017.91 1018.15 1018.31 1018.34 1018.24 1017.99 1017.62 1017.15
1003.97 1005.21 1006.41 1007.45 1008.27 1008.87 1009.30 1009.66 1010.01 1010.43 1010.95 1011.56 1012.21 1012.84 1013.40 1013.86 1014.18 1014.41 1014.56 1014.70 1014.86 1015.09 1015.37 1015.70 1016.04 1016.36 1016.63 1016.82 1016.95 1017.03 1017.10 1017.20 1017.34 1017.53 1017.76 1018.01 1018.23 1018.38 1018.43 1018.35 1018.15 1017.83 1017.43
1003.05 1004.31 1005.57 1006.70 1007.63 1008.34 1008.88 1009.31 1009.70 1010.14 1010.63 1011.20 1011.81 1012.40 1012.95 1013.42 1013.78 1014.07 1014.30 1014.53 1014.77 1015.06 1015.39 1015.76 1016.13 1016.46 1016.74 1016.94 1017.08 1017.17 1017.25 1017.35 1017.48 1017.65 1017.85 1018.06 1018.25 1018.39 1018.43 1018.37 1018.21 1017.96 1017.64
1002.12 1003.37 1004.66 1005.85 1006.86 1007.68 1008.33 1008.85 1009.32 1009.79 1010.29 1010.84 1011.42 1011.99 1012.52 1012.98 1013.38 1013.72 1014.02 1014.31 1014.62 1014.97 1015.35 1015.75 1016.14 1016.49 1016.78 1017.00 1017.16 1017.28 1017.38 1017.48 1017.60 1017.75 1017.93 1018.11 1018.26 1018.37 1018.41 1018.38 1018.26 1018.08 1017.84
1001.26 1002.45 1003.70 1004.90 1005.97 1006.87 1007.62 1008.25 1008.82 1009.36 1009.90 1010.47 1011.04 1011.59 1012.11 1012.58 1013.00 1013.36 1013.71 1014.05 1014.41 1014.80 1015.21 1015.63 1016.04 1016.41 1016.72 1016.98 1017.17 1017.32 1017.45 1017.58 1017.71 1017.86 1018.02 1018.17 1018.30 1018.39 1018.43 1018.41 1018.35 1018.23 1018.08
1000.53 1001.60 1002.76 1003.92 1004.99 1005.95 1006.79 1007.53 1008.20 1008.83 1009.45 1010.06 1010.65 1011.22 1011.74 1012.21 1012.64 1013.02 1013.39 1013.76 1014.15 1014.56 1014.98 1015.42 1015.84 1016.22 1016.56 1016.85 1017.09 1017.30 1017.48 1017.65 1017.81 1017.98 1018.14 1018.28 1018.39 1018.47 1018.51 1018.51 1018.49 1018.44 1018.36
1000.01 1000.91 1001.93 1002.98 1004.01 1004.98 1005.88 1006.71 1007.49 1008.23 1008.94 1009.62 1010.26 1010.85 1011.39 1011.87 1012.29 1012.69 1013.06 1013.44 1013.83 1014.24 1014.67 1015.10 1015.53 1015.93 1016.30 1016.64 1016.94 1017.20 1017.45 1017.68 1017.90 1018.10 1018.28 1018.43 1018.54 1018.61 1018.66 1018.68 1018.69 1018.68 1018.67
999.77 1000.47 1001.30 1002.20 1003.13 1004.06 1004.98 1005.87 1006.74 1007.58 1008.38 1009.14 1009.84 1010.48 1011.03 1011.52 1011.95 1012.34 1012.71 1013.08 1013.46 1013.87 1014.29 1014.72 1015.15 1015.58 1015.98 1016.36 1016.73 1017.07 1017.39 1017.70 1017.98 1018.23 1018.44 1018.61 1018.73 1018.81 1018.85 1018.88 1018.91 1018.93 1018.96
999.86 1000.33 1000.94 1001.65 1002.44 1003.29 1004.19 1005.11 1006.03 1006.95 1007.83 1008.66 1009.42 1010.09 1010.67 1011.16 1011.59 1011.97 1012.34 1012.69 1013.07 1013.46 1013.87 1014.31 1014.75 1015.19 1015.63 1016.07 1016.49 1016.91 1017.32 1017.70 1018.05 1018.35 1018.60 1018.80 1018.93 1019.01 1019.06 1019.08 1019.11 1019.15 1019.20
1000.25 1000.50 1000.89 1001.40 1002.03 1002.77 1003.60 1004.51 1005.45 1006.40 1007.33 1008.20 1008.99 1009.68 1010.27 1010.77 1011.19 1011.57 1011.92 1012.27 1012.64 1013.03 1013.45 1013.88 1014.34 1014.81 1015.30 1015.78 1016.27 1016.76 1017.24 1017.69 1018.10 1018.46 1018.75 1018.97 1019.12 1019.20 1019.24 1019.26 1019.27 1019.30 1019.35
1000.90 1000.97 1001.16 1001.48 1001.95 1002.56 1003.30 1004.14 1005.06 1006.00 1006.92 1007.79 1008.58 1009.26 1009.84 1010.33 1010.75 1011.11 1011.47 1011.82 1012.19 1012.59 1013.02 1013.48 1013.97 1014.47 1015.00 1015.53 1016.08 1016.63 1017.17 1017.68 1018.14 1018.55 1018.88 1019.12 1019.27 1019.36 1019.38 1019.38 1019.38 1019.38 1019.41
1001.74 1001.68 1001.71 1001.87 1002.19 1002.67 1003.29 1004.05 1004.89 1005.77 1006.64 1007.46 1008.20 1008.84 1009.39 1009.85 1010.25 1010.61 1010.96 1011.33 1011.72 1012.14 1012.60 1013.10 1013.62 1014.17 1014.74 1015.32 1015.91 1016.51 1017.10 1017.65 1018.16 1018.60 1018.96 1019.22 1019.39 1019.48 1019.50 1019.48 1019.45 1019.43 1019.43
1002.67 1002.53 1002.46 1002.51 1002.70 1003.06 1003.57 1004.21 1004.94 1005.72 1006.49 1007.22 1007.88 1008.45 1008.93 1009.35 1009.72 1010.07 1010.42 1010.81 1011.23 1011.69 1012.19 1012.73 1013.30 1013.89 1014.50 1015.13 1015.76 1016.39 1017.02 1017.61 1018.15 1018.62 1019.01 1019.29 1019.48 1019.58 1019.60 1019.57 1019.53 1019.48 1019.46
1003.60 1003.43 1003.32 1003.30 1003.41 1003.67 1004.06 1004.58 1005.18 1005.83 1006.47 1007.07 1007.62 1008.09 1008.49 1008.85 1009.18 1009.51 1009.87 1010.27 1010.72 1011.23 1011.78 1012.36 1012.98 1013.62 1014.27 1014.93 1015.59 1016.25 1016.90 1017.52 1018.09 1018.59 1019.01 1019.33 1019.55 1019.68 1019.72 1019.70 1019.65 1019.60 1019.55
1004.48 1004.33 1004.21 1004.16 1004.22 1004.39 1004.69 1005.09 1005.56 1006.06 1006.56 1007.02 1007.43 1007.78 1008.09 1008.38 1008.66 1008.97 1009.33 1009.74 1010.22 1010.76 1011.35 1011.99 1012.65 1013.32 1014.01 1014.70 1015.39 1016.07 1016.74 1017.38 1017.98 1018.52 1018.97 1019.34 1019.61 1019.78 1019.87 1019.89 1019.86 1019.80 1019.75
1005.27 1005.15 1005.05 1005.00 1005.03 1005.15 1005.36 1005.65 1006.00 1006.36 1006.71 1007.03 1007.31 1007.55 1007.76 1007.97 1008.20 1008.48 1008.83 1009.24 1009.74 1010.31 1010.93 1011.60 1012.29 1012.99 1013.71 1014.42 1015.13 1015.83 1016.51 1017.18 1017.81 1018.38 1018.89 1019.31 1019.64 1019.88 1020.03 1020.11 1020.12 1020.10 1020.05
1005.95 1005.88 1005.80 1005.76 1005.77 1005.85 1006.00 1006.20 1006.43 1006.67 1006.89 1007.09 1007.25 1007.39 1007.51 1007.65 1007.83 1008.07 1008.39 1008.80 1009.30 1009.87 1010.51 1011.20 1011.91 1012.64 1013.37 1014.09 1014.81 1015.53 1016.23 1016.91 1017.57 1018.18 1018.74 1019.22 1019.63 1019.95 1020.18 1020.33 1020.41 1020.43 1020.42
1006.53 1006.48 1006.42 1006.39 1006.39 1006.43 1006.53 1006.66 1006.80 1006.94 1007.07 1007.16 1007.23 1007.28 1007.33 1007.40 1007.53 1007.73 1008.02 1008.41 1008.89 1009.46 1010.10 1010.79 1011.52 1012.25 1012.99 1013.73 1014.46 1015.18 1015.89 1016.59 1017.26 1017.91 1018.51 1019.05 1019.53 1019.93 1020.25 1020.49 1020.65 1020.75 1020.79
1006.98 1006.94 1006.89 1006.85 1006.84 1006.86 1006.91 1006.98 1007.07 1007.14 1007.19 1007.22 1007.22 1007.20 1007.19 1007.22 1007.30 1007.46 1007.71 1008.07 1008.53 1009.08 1009.71 1010.40 1011.12 1011.86 1012.60 1013.34 1014.08 1014.80 1015.51 1016.21 1016.90 1017.56 1018.19 1018.77 1019.31 1019.78 1020.19 1020.51 1020.77 1020.96 1021.07
1007.31 1007.25 1007.19 1007.13 1007.10 1007.10 1007.12 1007.15 1007.19 1007.22 1007.23 1007.21 1007.16 1007.11 1007.06 1007.05 1007.09 1007.21 1007.43 1007.75 1008.18 1008.71 1009.32 1010.00 1010.71 1011.45 1012.20 1012.95 1013.68 1014.40 1015.10 1015.79 1016.47 1017.13 1017.77 1018.38 1018.95 1019.48 1019.95 1020.36 1020.71 1020.99 1021.21
Thickness
5794 5795 5794 5793 5789 5785 5782 5779 5776 5773 5769 5765 5761 5757 5754 5753 5751 5751 5749 5747 5745 5744 5742 5740 5738 5737 5736 5735 5734 5733 5731 5729 5729 5726 5723 5725 5728 5728 5728 5729 5728 5728 5728
5785 5787 5787 5786 5784 5781 5779 5777 5774 5771 5767 5764 5761 5758 5753 5750 5748 5748 5746 5744 5743 5741 5739 5737 5735 5735 5733 5732 5731 5730 5727 5726 5726 5721 5716 5712 5715 5721 5725 5725 5724 5725 5725
5780 5780 5781 5780 5778 5776 5775 5775 5771 5768 5764 5761 5757 5753 5749 5745 5743 5742 5741 5741 5740 5738 5737 5735 5734 5733 5731 5729 5729 5728 5725 5721 5722 5721 5716 5708 5705 5710 5716 5719 5720 5721 5720
5779 5778 5778 5776 5775 5774 5773 5770 5767 5764 5759 5757 5752 5748 5743 5739 5738 5738 5737 5737 5736 5735 5734 5732 5731 5730 5729 5727 5727 5726 5724 5721 5717 5717 5717 5715 5712 5706 5705 5710 5714 5716 5716
5775 5774 5775 5774 5773 5772 5768 5766 5762 5758 5754 5752 5748 5745 5740 5738 5736 5735 5733 5732 5731 5731 5730 5729 5728 5726 5725 5724 5724 5723 5721 5719 5716 5714 5713 5712 5710 5708 5702 5700 5704 5708 5711
5770 5769 5770 5770 5767 5766 5764 5761 5757 5753 5750 5747 5745 5742 5737 5734 5731 5729 5727 5726 5726 5726 5726 5726 5724 5723 5722 5721 5720 5719 5718 5716 5714 5712 5710 5708 5705 5703 5701 5697 5697 5699 5703
5762 5760 5760 5761 5760 5759 5758 5755 5752 5748 5745 5743 5740 5738 5734 5731 5728 5725 5723 5721 5720 5720 5720 5721 5720 5719 5718 5717 5716 5714 5713 5712 5710 5709 5707 5707 5705 5704 5701 5697 5694 5694 5696
5757 5756 5755 5755 5754 5753 5751 5749 5745 5742 5740 5738 5736 5733 5731 5728 5725 5723 5721 5718 5717 5717 5717 5717 5716 5715 5714 5714 5712 5710 5709 5708 5706 5706 5705 5703 5703 5702 5700 5697 5692 5688 5688
5750 5749 5749 5749 5747 5746 5745 5743 5740 5737 5735 5733 5731 5729 5726 5723 5720 5719 5717 5716 5715 5715 5714 5713 5712 5711 5710 5709 5707 5705 5704 5703 5702 5701 5701 5700 5699 5698 5697 5696 5693 5687 5681
5743 5742 5742 5742 5741 5741 5739 5737 5735 5731 5729 5727 5725 5724 5721 5718 5716 5714 5713 5713 5712 5711 5710 5709 5708 5707 5706 5704 5702 5701 5700 5698 5698 5697 5695 5695 5694 5693 5692 5691 5689 5687 5683
5734 5734 5733 5733 5733 5733 5731 5728 5726 5724 5722 5721 5719 5718 5715 5713 5711 5710 5710 5709 5708 5708 5706 5705 5704 5702 5701 5700 5697 5696 5695 5693 5692 5692 5690 5689 5689 5688 5687 5685 5684 5682 5680
5727 5727 5727 5726 5724 5723 5722 5720 5719 5717 5716 5714 5712 5711 5710 5708 5706 5705 5705 5705 5704 5704 5703 5701 5699 5698 5696 5695 5693 5691 5690 5688 5687 5686 5685 5684 5684 5683 5682 5680 5678 5677 5676
5719 5718 5717 5717 5716 5715 5714 5712 5711 5710 5709 5708 5705 5703 5702 5701 5700 5700 5700 5700 5700 5699 5698 5697 5695 5693 5692 5690 5688 5687 5686 5684 5683 5682 5681 5680 5679 5677 5676 5675 5673 5672 5672
5712 5710 5708 5708 5708 5708 5707 5705 5703 5702 5702 5701 5699 5697 5696 5695 5694 5694 5694 5694 5694 5693 5692 5691 5690 5689 5687 5685 5684 5682 5681 5680 5679 5678 5678 5677 5675 5673 5672 5671 5669 5668 5665
5703 5702 5700 5699 5699 5699 5699 5698 5696 5695 5694 5693 5692 5691 5690 5689 5688 5688 5687 5688 5687 5687 5686 5684 5683 5683 5681 5680 5678 5676 5675 5674 5673 5673 5672 5672 5671 5670 5668 5667 5664 5662 5659
5696 5696 5694 5693 5691 5691 5690 5689 5688 5687 5687 5685 5684 5684 5683 5682 5681 5681 5681 5680 5680 5680 5679 5677 5676 5675 5675 5675 5673 5671 5669 5668 5667 5666 5666 5666 5665 5665 5664 5662 5661 5659 5655
5688 5686 5685 5685 5684 5683 5683 5683 5682 5681 5679 5677 5676 5676 5675 5674 5674 5675 5673 5673 5672 5672 5671 5670 5669 5668 5668 5668 5667 5666 5663 5662 5661 5660 5659 5660 5660 5658 5657 5656 5655 5653 5652
5680 5678 5677 5676 5676 5676 5675 5675 5674 5673 5671 5669 5668 5668 5667 5667 5667 5667 5666 5666 5665 5665 5665 5664 5663 5662 5662 5661 5660 5659 5657 5655 5655 5655 5654 5653 5652 5652 5651 5649 5647 5646 5645
5673 5673 5671 5670 5669 5669 5668 5667 5665 5664 5663 5661 5660 5660 5660 5660 5660 5659 5659 5659 5658 5657 5658 5658 5657 5655 5655 5655 5654 5652 5650 5648 5648 5649 5649 5647 5646 5646 5645 5642 5640 5638 5638
5664 5664 5663 5661 5660 5660 5660 5658 5655 5654 5654 5655 5655 5654 5654 5653 5653 5652 5652 5652 5651 5651 5651 5650 5650 5649 5648 5648 5647 5646 5643 5641 5641 5641 5642 5642 5641 5640 5638 5635 5633 5631 5632
5657 5656 5654 5651 5651 5652 5651 5648 5647 5646 5648 5649 5649 5648 5648 5647 5647 5646 5646 5645 5645 5644 5643 5643 5643 5642 5642 5641 5640 5639 5636 5635 5634 5633 5634 5634 5634 5633 5632 5630 5629 5628 5627
5647 5646 5644 5642 5643 5643 5642 5640 5639 5641 5641 5641 5641 5641 5641 5642 5643 5640 5639 5639 5638 5637 5636 5635 5634 5635 5635 5635 5633 5632 5631 5630 5627 5627 5627 5628 5628 5627 5626 5625 5625 5623 5621
5639 5638 5636 5635 5634 5635 5634 5632 5633 5634 5634 5633 5633 5633 5634 5635 5635 5634 5633 5632 5632 5630 5629 5628 5627 5627 5628 5627 5627 5626 5625 5624 5622 5621 5622 5622 5621 5620 5619 5619 5618 5616 5613
5628 5628 5627 5626 5626 5627 5627 5627 5628 5628 5627 5626 5625 5626 5626 5626 5627 5627 5627 5626 5626 5625 5624 5623 5622 5621 5620 5620 5619 5618 5617 5616 5615 5614 5614 5614 5613 5613 5613 5612 5612 5610 5608
5618 5619 5618 5618 5619 5620 5619 5621 5621 5621 5619 5619 5619 5619 5619 5619 5619 5619 5620 5621 5622 5622 5620 5619 5618 5615 5614 5615 5615 5613 5611 5610 5609 5606 5605 5604 5603 5603 5604 5604 5604 5604 5602
5610 5611 5611 5611 5612 5612 5613 5614 5615 5614 5612 5612 5612 5611 5611 5612 5612 5612 5612 5614 5616 5616 5617 5616 5614 5613 5612 5611 5609 5608 5607 5605 5603 5600 5598 5597 5597 5596 5596 5596 5596 5597 5596